Location: Doddington
(51.2667°N, 0.7667°E)
Time: 21:20:18
(UTC+00:00)

Daily predictions for brighter satellites

Satellite Brightness Start Highest point End
(mag) Time Altitude Azimuth Time Altitude Azimuth Time Altitude Azimuth
Exosat Rocket 4.1 18:36:26 10° S 18:41:23 45° ESE 18:47:38 10° NE
Meteor 1-11 Rocket 4.2 18:38:58 10° SSW 18:44:53 75° WNW 18:50:42 10° N
USA 186 2.8 18:42:40 10° SE 18:45:19 26° ENE 18:48:00 10° N
Meteor 1-21 4.3 18:41:55 10° N 18:47:29 59° ENE 18:53:03 10° SSE
Okean 3 3.4 18:43:25 10° N 18:47:38 66° ENE 18:51:50 10° SSE
COSMO-SKYMED 1 3.7 18:45:14 10° N 18:49:28 51° WNW 18:53:41 10° SW
USA 229 DEB 4.2 18:44:41 10° WSW 18:51:00 60° NW 18:57:57 10° NE
USA 229 4.2 18:44:47 10° WSW 18:51:05 61° NW 18:58:03 10° NE
Cosmos 1707 2.6 18:48:56 10° N 18:52:46 81° E 18:56:33 10° SSE
Cosmos 2322 3.8 18:47:52 10° NNW 18:53:36 89° SW 18:59:15 10° SSE
Okean 1-7 3.0 18:49:49 10° N 18:54:13 76° ENE 18:58:34 10° SSE
CZ-4B R/B 3.4 18:49:05 10° SSE 18:54:46 88° WSW 19:00:26 10° NNW
Cosmos 1954 Rocket 4.2 18:49:32 10° NNW 18:54:48 82° WSW 19:00:04 10° SSE
Cosmos 1727 Rocket 4.0 18:49:52 10° S 18:56:11 84° E 19:02:30 10° N
Cosmos 1674 2.5 18:53:26 10° N 18:57:10 74° E 19:00:52 10° SSE
Lacrosse 5 rocket 3.4 18:57:24 10° SE 18:58:08 10° ESE 18:58:51 10° ESE
Cosmos 1980 4.3 18:53:24 10° NNW 18:58:48 41° NE 19:04:09 10° ESE
Cosmos 1805 4.4 18:56:07 10° SE 18:59:03 22° E 19:02:01 10° NE
Cosmos 2219 Rocket 2.7 18:54:32 10° NW 19:00:12 67° WSW 19:05:49 10° SSE
Cosmos 2333 Rocket 3.4 18:56:36 10° NW 19:02:06 46° WSW 19:07:33 10° S
Cosmos 1933 Rocket 3.5 18:59:01 10° S 19:03:15 60° E 19:07:33 10° NNE
Cosmos 1975 3.0 18:59:34 10° SSE 19:03:21 46° E 19:07:11 10° NNE
SJ-6B 2.9 19:00:17 10° SSE 19:04:08 57° ENE 19:07:55 10° N
CZ-4C R/B 4.2 19:00:46 10° N 19:04:26 53° WNW 19:08:15 10° SSW
Cosmos 2233 Rocket 4.5 19:01:09 10° N 19:06:53 39° ENE 19:12:38 10° SE
Meteor 2-9 Rocket 4.2 19:01:54 10° S 19:07:25 89° WNW 19:12:49 10° NNE
Cosmos 1726 3.1 19:05:36 10° SE 19:08:27 24° E 19:11:21 10° NE
CSL-04 Debris 4.2 19:04:24 10° SSE 19:09:44 61° ENE 19:15:07 10° N
BREEZE-M DEB (TANK) 4.2 19:06:55 10° W 19:10:47 21° SW 19:12:58 10° S
Cosmos 2061 Rocket 4.2 19:04:50 10° N 19:11:10 54° ENE 19:17:25 10° SSE
USA 267 4.4 19:05:25 10° SSE 19:11:31 40° SW 19:17:40 10° WNW
Cosmos 1869 Rocket 3.9 19:08:54 10° SSE 19:12:56 40° E 19:17:00 10° NNE
COSMOS 2428 2.8 19:07:34 10° NNW 19:13:20 83° WSW 19:19:04 10° SSE
Cosmos 1900 4.4 19:08:34 10° SSW 19:13:21 52° ESE 19:18:09 10° NE
SL-14 R/B 3.7 19:12:02 10° N 19:15:41 39° ENE 19:19:17 10° SE
Cosmos 1459 Rocket 4.0 19:12:21 10° N 19:18:27 83° W 19:24:31 10° S
USA 281 3.4 19:13:59 10° NNE 19:20:35 78° WNW 19:27:08 10° SW
NOSS 3-2 (A) 4.2 19:13:32 10° NW 19:20:51 80° SW 19:29:26 10° SE
Cosmos 2297 Rocket 3.2 19:16:45 10° SSE 19:21:09 24° ESE 19:25:35 10° NE
ATLAS 3B R/B 4.3 19:15:12 10° WNW 19:21:33 31° N 19:28:11 10° NE
Cosmos 1867 4.2 19:19:42 10° S 19:24:27 32° ESE 19:29:14 10° NE
IGS 5A 4.0 19:23:10 10° S 19:27:14 61° W 19:31:21 10° NNW
Cosmos 1725 Rocket 3.9 19:22:06 10° N 19:28:19 77° E 19:34:30 10° SSE
MINOTAUR 4 R/B 4.1 19:25:48 10° NNE 19:29:14 75° WNW 19:32:38 10° SSW
Resurs 01 Rocket 2.2 19:25:55 14° SE 19:29:17 39° ENE 19:33:25 10° N
CZ-4C R/B 3.7 19:24:49 10° NW 19:30:44 37° NNE 19:36:50 14° E
Cosmos 1371 Rocket 4.4 19:25:40 10° SW 19:30:55 68° WNW 19:36:09 10° NNE
CENTAUR R/B 3.5 19:23:15 10° NW 19:31:19 71° SW 19:40:18 10° SSE
NOSS 3-2 (C) 4.0 19:24:09 10° NW 19:31:25 80° NE 19:38:47 15° SE
Cosmos 1626 3.8 19:28:45 10° NNW 19:32:02 34° W 19:35:16 10° SSW
Cosmos 1733 3.1 19:29:18 10° S 19:33:00 60° E 19:36:44 10° NNE
Landsat 7 3.8 19:29:24 10° SSE 19:34:07 87° WSW 19:38:52 10° NNW
Cosmos 1271 Rocket 4.4 19:36:59 16° ENE 19:36:59 16° ENE 19:38:33 10° NE
Cosmos 2227 Rocket 3.4 19:35:02 17° SE 19:37:04 20° E 19:41:05 10° NE
CZ-4 R/B 2.9 19:34:43 10° SSW 19:38:15 35° W 19:41:52 10° NNW
Cosmos 2056 Rocket 4.0 19:34:16 10° SW 19:39:20 61° WNW 19:44:25 10° NNE
Iridium 4 Rocket 2.9 19:37:55 10° N 19:42:09 84° E 19:46:18 10° S
Cosmos 192 4.3 19:38:02 10° S 19:42:56 63° ESE 19:47:50 10° NNE
Cosmos 2098 Rocket 3.8 19:37:47 10° S 19:43:15 86° E 19:49:51 10° N
Terra 3.6 19:42:45 14° ENE 19:43:51 15° NE 19:46:30 10° NNE
Cosmos 1802 Rocket 4.4 19:38:34 10° NNW 19:44:47 69° W 19:51:02 10° S
Geosat 4.0 19:40:50 16° SE 19:44:52 78° NE 19:49:55 10° NNW
USA 238 DEB 3.9 19:37:51 10° NW 19:45:06 78° NE 19:50:50 20° SE
USA 238 3.9 19:37:58 10° NW 19:45:12 78° NE 19:50:55 20° SE
Resurs 1-3 3.8 19:42:13 10° S 19:46:35 73° WSW 19:50:59 10° NNW
SL-16 R/B 3.1 19:41:35 10° NNW 19:46:46 34° NE 19:49:39 22° E
Cosmos 1674 Rocket 4.3 19:47:31 10° N 19:51:29 33° ENE 19:52:41 28° ESE
Cosmos 1850 Rocket 4.2 19:47:01 10° NNW 19:52:22 78° WSW 19:57:17 12° SSE
Meteor 2-10 3.8 19:49:21 10° S 19:54:22 82° E 19:59:30 10° NNE
Cosmos 1733 Rocket 3.4 19:53:01 23° SE 19:55:08 39° E 19:59:10 10° NNE
Okean-O 2.7 19:52:24 10° SSE 19:56:50 79° WSW 20:01:18 10° NNW
Okean 2 3.7 19:53:47 10° NNW 19:57:50 65° W 20:01:52 10° S
Cosmos 2016 Rocket 4.4 19:52:02 10° NNW 19:58:04 65° W 20:04:07 10° S
NOSS 0 Rocket 4.3 19:53:10 10° NW 19:59:17 62° WSW 20:05:06 11° SSE
CARTOSAT-1 3.8 19:58:45 31° SE 20:00:24 49° ENE 20:04:34 10° N
SPOT 1/Viking Rocket 3.5 19:55:57 13° SSE 20:00:35 85° ENE 20:05:50 10° NNW
Cosmos 1110 Rocket 4.0 19:56:44 10° S 20:01:49 58° ESE 20:06:55 10° NNE
Cosmos 1378 Rocket 3.9 19:58:33 10° N 20:02:48 44° ENE 20:04:03 35° ESE
SPOT 5 3.8 20:02:23 26° E 20:03:23 29° ENE 20:07:31 10° N
Cosmos 2123 Rocket 4.2 19:57:33 10° SSW 20:03:51 75° WNW 20:10:13 10° N
Cosmos 2221 Rocket 3.7 19:59:32 10° N 20:03:54 52° ENE 20:05:26 35° SE
Okean O Rocket 3.7 20:01:35 10° SSW 20:05:21 27° W 20:09:07 10° NW
Helios 1B 4.5 20:01:29 10° NNE 20:05:51 88° ESE 20:10:11 10° SSW
BREEZE-M DEB (TANK) 2.7 20:01:59 10° W 20:07:43 63° SSW 20:08:22 48° SE
ISS -3.8 20:04:43 10° W 20:08:05 82° N 20:08:42 56° E
GEOS 3 Rocket 4.2 20:03:05 10° NE 20:08:23 61° NW 20:13:41 10° WSW
Cosmos 1447 Rocket 4.4 20:10:37 10° S 20:16:46 67° E 20:22:55 10° NNE
Cosmos 1452 Rocket 3.5 20:11:35 10° SSW 20:16:52 85° WNW 20:22:12 10° NNE
USA 215 3.7 20:10:32 10° ENE 20:16:52 59° NNW 20:23:16 10° W
USA 186 4.3 20:15:00 10° SW 20:17:24 21° W 20:19:51 10° NW
ADEOS Rocket 3.9 20:15:26 28° E 20:17:50 37° ENE 20:24:12 10° N
Cosmos 1766 3.0 20:17:38 49° SSE 20:18:29 68° E 20:22:17 10° NNE
Cosmos 1331 Rocket 3.8 20:13:40 10° SSW 20:18:46 72° ESE 20:23:57 10° NNE
Cosmos 2237 Rocket 2.5 20:16:08 10° NW 20:21:44 65° WSW 20:25:11 24° S
H-2A R/B 2.8 20:23:55 47° E 20:24:29 51° ENE 20:28:49 10° N
Meteor 1-15 Rocket 4.5 20:24:43 35° SE 20:26:38 49° E 20:32:17 10° NNE
MetOp-B 4.0 20:29:53 40° SSE 20:31:52 75° ENE 20:37:15 10° NNW
ATLAS CENTAUR R/B 4.1 20:17:05 10° SW 20:32:56 81° SE 20:40:07 10° ENE
Cosmos 968 Rocket 3.5 20:30:25 10° NNW 20:35:36 78° WSW 20:37:26 41° S
Lacrosse 5 rocket 2.5 20:32:07 10° SW 20:34:35 31° SSW 20:34:35 31° SSW
SJ 16-02 2.4 20:32:32 10° N 20:36:14 31° NE 20:36:14 31° NE
Meteor 1-12 Rocket 4.2 20:38:17 37° SSE 20:40:28 63° E 20:46:08 10° NNE
Cosmos 1975 Rocket 4.5 20:37:03 10° N 20:39:54 25° NE 20:39:54 25° NE
FALCON 9 R/B 4.2 20:25:23 10° WSW 20:42:08 31° SSW 20:45:16 25° SSE
Cosmos 1726 4.1 20:39:57 10° SW 20:43:00 27° WNW 20:46:05 10° N
ERS-1 Rocket 3.1 20:44:49 51° E 20:45:07 51° ENE 20:49:59 10° N
Cosmos 1513 Rocket 4.3 20:39:26 10° N 20:45:33 81° E 20:47:45 42° SSE
Meteor 1-24 Rocket 3.8 20:39:49 10° N 20:45:43 70° ENE 20:47:15 50° SE
Meteor 2-15 4.3 20:43:43 10° N 20:49:54 80° E 20:51:48 47° SSE
BREEZE-M DEB (TANK) 3.0 20:43:36 10° WNW 20:50:03 70° SSW 20:50:42 60° SSE
Landsat 5 4.2 20:46:42 10° N 20:50:23 47° WNW 20:53:40 13° SW
Ariane Rocket 2.9 20:49:52 59° SSE 20:50:53 88° ENE 20:55:59 10° NNW
Spot 2 4.3 20:51:12 66° ESE 20:51:38 71° ENE 20:56:30 10° NNW
Meteor 2-8 Rocket 4.3 20:45:31 10° N 20:51:42 76° ENE 20:53:21 50° SSE
Cosmos 482 Debris 4.4 20:48:13 10° WNW 20:52:59 72° W 20:52:59 72° W
Cosmos 1943 4.1 20:48:43 10° NNW 20:53:49 33° NE 20:54:31 32° ENE
Meteor 2-15 Rocket 4.4 20:49:39 10° N 20:55:50 70° ENE 20:57:02 56° SE
Spot 2 Rocket 3.4 21:01:35 69° E 21:01:43 69° ENE 21:06:49 10° N
Cosmos 1302 Rocket 3.9 21:02:14 61° S 21:03:10 82° ESE 21:08:31 10° NNE
Cosmos 2297 Rocket 2.4 20:59:04 10° SW 21:04:42 69° WNW 21:10:23 10° NNE
Resurs 01 Rocket 3.4 21:03:27 18° SW 21:05:52 28° W 21:09:42 10° NW
Cosmos 2034 Rocket 3.8 21:00:54 10° N 21:07:07 70° ENE 21:07:51 63° ESE
Cosmos 1867 4.0 21:02:23 10° SW 21:07:47 61° NW 21:13:13 10° NE
Cosmos 1271 Rocket 3.8 21:11:48 42° NW 21:11:48 42° NW 21:15:04 10° N
Cosmos 2219 3.3 21:13:55 59° ENE 21:13:55 59° ENE 21:18:35 10° NNE
SPOT 3 Rocket 3.5 21:12:40 75° SSW 21:13:04 82° WSW 21:18:20 10° NNW
Meteor 2-5 Rocket 3.9 21:07:20 10° NNW 21:13:08 72° W 21:14:30 53° SSW
ATLAS 3B R/B 3.9 21:07:23 10° NW 21:14:16 39° NNE 21:17:41 26° ENE
Cosmos 1470 4.1 21:15:43 36° N 21:15:43 36° N 21:18:12 10° N
deb Chang Zheng 4 4.5 21:16:08 39° N 21:16:08 39° N 21:18:38 10° NNW
Meteor 2-19 Rocket 4.5 21:15:20 58° E 21:15:20 58° E 21:21:01 10° NNE
CZ-4C R/B 2.9 21:13:14 10° NW 21:20:12 82° NE 21:21:59 58° ESE
Cosmos 2227 Rocket 2.2 21:14:46 10° SSW 21:20:27 81° WNW 21:26:10 10° NNE
Terra 2.1 21:21:29 64° N 21:21:29 64° N 21:25:31 10° NNW
Cosmos 1503 Rocket 4.3 21:22:17 10° NNW 21:26:52 58° NNE 21:26:52 58° NNE
SL-16 R/B 2.5 21:25:37 10° NW 21:31:12 57° WSW 21:31:32 56° SW
Cosmos 1486 Rocket 4.3 21:33:26 10° NNW 21:38:14 67° WNW 21:38:14 67° WNW
SPOT 5 3.7 21:41:34 43° W 21:41:34 43° W 21:45:52 10° NNW
ISS -0.4 21:41:32 10° W 21:41:38 11° W 21:41:38 11° W
H-2A R/B 4.2 21:50:21 10° NNE 21:51:45 20° NNE 21:51:45 20° NNE
Cosmos 2279 Rocket 4.4 21:51:12 10° N 21:56:22 51° NE 21:56:22 51° NE
USA 215 3.7 21:57:51 46° NE 21:59:27 58° N 22:05:50 10° WNW
ADEOS Rocket 3.5 22:02:22 53° WSW 22:03:03 55° W 22:09:58 10° NNW
Cosmos 2263 Rocket 3.8 22:13:19 25° NE 22:13:19 25° NE 22:15:30 10° NNE
SJ 16-02 3.4 22:10:58 10° NW 22:13:07 25° WNW 22:13:07 25° WNW
ATLAS 2AS CENTAUR R/B 4.4 22:29:01 22° ENE 22:29:01 22° ENE 22:31:30 10° NE
Cosmos 1943 4.3 22:32:39 10° NW 22:36:19 39° WNW 22:36:19 39° WNW
NOSS 3-4 (A) 4.1 22:42:48 49° NNW 22:42:51 49° NNW 22:49:04 10° NE
NOSS 3-4 (C) 4.1 22:43:06 49° NNW 22:43:06 49° NNW 22:49:10 10° NE
ATLAS CENTAUR R/B 3.8 22:37:18 10° W 22:48:25 56° NNW 22:49:44 48° NNE
Terra 4.4 23:00:13 14° WNW 23:00:13 14° WNW 23:01:43 10° NW
Cosmos 2082 Rocket 4.4 22:57:38 10° N 23:01:10 17° NNE 23:02:28 15° NE
NOSS 3-1 (A) 4.5 22:56:25 10° NW 23:03:03 50° NNE 23:03:39 49° NE
Cosmos 2227 Rocket 4.4 23:01:01 10° W 23:05:25 22° NW 23:09:49 10° NNE
ATLAS 3B R/B 3.1 22:58:24 10° NW 23:04:56 69° NNW 23:04:56 69° NNW
CZ-4C R/B 4.1 23:02:03 10° NW 23:07:09 32° W 23:07:09 32° W
Cosmos 1833 Rocket 4.3 23:09:06 10° NNW 23:12:54 29° NNE 23:12:54 29° NNE
Cosmos 2344 4.0 23:10:17 10° NW 23:18:48 82° SW 23:18:50 82° SW
USA 215 4.3 23:45:10 37° WNW 23:45:10 37° WNW 23:48:53 10° WNW
NOSS 3-1 (C) 4.4 23:43:08 10° NW 23:48:11 53° NW 23:48:11 53° NW
Cosmos 2263 Rocket 4.0 23:54:56 26° NNW 23:54:56 26° NNW 23:59:08 10° NNE
